This is the latest recevied weather packets stored in our database for station/object RV1CJ-14. If no packets are shown the sender has not sent any weather packets the latest 10 day(s).
| Time | Temp. | Humidity | Pressure | Rain* | Wind** | Luminosity | Snow |
|---|---|---|---|---|---|---|---|
| 1777561804 | 5.56° C | 81% | 1016.6 hPa | 0 mm | - | 30 W/m² | - |
| 1777561204 | 5.56° C | 81% | 1016.6 hPa | 0 mm | - | 28 W/m² | - |
| 1777560603 | 5.56° C | 80% | 1016.8 hPa | 0 mm | - | 28 W/m² | - |
| 1777560003 | 6.11° C | 80% | 1016.8 hPa | 0 mm | - | 35 W/m² | - |
| 1777559404 | 6.11° C | 80% | 1016.7 hPa | 0 mm | - | 49 W/m² | - |
| 1777558803 | 6.11° C | 80% | 1016.8 hPa | 0 mm | - | 46 W/m² | - |
| 1777558203 | 6.11° C | 80% | 1016.8 hPa | 0 mm | - | 53 W/m² | - |
| 1777557604 | 6.11° C | 80% | 1016.9 hPa | 0 mm | - | 88 W/m² | - |
| 1777557003 | 5.56° C | 79% | 1017 hPa | 0 mm | - | 95 W/m² | - |
| 1777556404 | 5.56° C | 79% | 1016.9 hPa | 0 mm | - | 86 W/m² | - |
| 1777555803 | 5.56° C | 78% | 1016.8 hPa | 0 mm | - | 77 W/m² | - |
| 1777555203 | 5.56° C | 77% | 1016.9 hPa | 0 mm | - | 81 W/m² | - |
| 1777554603 | 5.56° C | 75% | 1017.1 hPa | 0 mm | - | 81 W/m² | - |
| 1777554003 | 6.11° C | 74% | 1017 hPa | 0 mm | - | 95 W/m² | - |
| 1777553403 | 6.11° C | 73% | 1017.1 hPa | 0 mm | - | 105 W/m² | - |
| 1777552803 | 6.11° C | 72% | 1017.3 hPa | 0 mm | - | 104 W/m² | - |
| 1777552203 | 6.11° C | 70% | 1017.4 hPa | 0 mm | - | 104 W/m² | - |
| 1777551603 | 6.67° C | 67% | 1017.3 hPa | 0 mm | - | 123 W/m² | - |
| 1777551003 | 7.22° C | 64% | 1017.3 hPa | 0 mm | - | 134 W/m² | - |
| 1777550403 | 7.22° C | 64% | 1017.3 hPa | 0 mm | - | 141 W/m² | - |
| 1777549803 | 7.22° C | 63% | 1017.4 hPa | 0 mm | - | 155 W/m² | - |
| 1777549203 | 7.22° C | 63% | 1017.3 hPa | 0 mm | - | 156 W/m² | - |
| 1777548603 | 7.22° C | 63% | 1017.3 hPa | 0 mm | - | 146 W/m² | - |
| 1777548003 | 7.78° C | 61% | 1017.2 hPa | 0 mm | - | 111 W/m² | - |
| 1777547403 | 7.78° C | 60% | 1017.3 hPa | 0 mm | - | 183 W/m² | - |
* Rain latest hour (hover to see other rain measurements)
** Current wind speed in m/s (hover to see current wind gust speed)